Regional Weather Roundup
Issued by NWS

Home | Current Version | Previous Version | Graphics & Text | Print | Product List | Glossary On
Versions: 1 2 3 4 5 6 7 8 9 10 11 12 13 14 15 16 17 18 19 20 21 22 23 24 25 26 27
000
ASUS45 KCYS 231810
RWRWY

WYOMING REGIONAL WEATHER ROUNDUP
NATIONAL WEATHER SERVICE CHEYENNE WY
1200 PM MDT WED APR 23 2014

NOTE:  "FAIR" INDICATES FEW OR NO CLOUDS BELOW 12,000 FEET
WITH NO SIGNIFICANT WEATHER AND/OR OBSTRUCTIONS TO VISIBILITY.

WYZ001-231900-
YELLOWSTONE NATIONAL PARK

CITY           SKY/WX    TMP DP  RH WIND       PRES   REMARKS
LK YELLOWSTONE   N/A     29  15  56 W13G20    29.82R WCI  19
6HR MIN TEMP:  24; 6HR MAX TEMP:  31; 6HR PCP:  0.04;

W YELLOWSTONE  NOT AVBL

$$
WYZ002>013-054>058-071-098>099-231900-
NORTHERN WYOMING

CITY           SKY/WX    TMP DP  RH WIND       PRES   REMARKS
JACKSON        MOSUNNY   36  16  44 SW15G22   29.87R WCI  26
CODY           MOSUNNY   48  18  29 W17G30    29.71R
GREYBULL       SUNNY     51  24  34 N18G28    29.71R
6HR MIN TEMP:  48; 6HR MAX TEMP:  52;

WORLAND        CLOUDY    53  26  35 N21G30    29.68
6HR MIN TEMP:  45; 6HR MAX TEMP:  56;

SHERIDAN         N/A     43  16  33 SW32        N/A
6HR MIN TEMP:  39; 6HR MAX TEMP:  48; 6HR PCP:  0.03;

BUFFALO        MOSUNNY   44  30  57 N30G43    29.70R
6HR MIN TEMP:  38; 6HR MAX TEMP:  47;

GILLETTE       CLOUDY    43  34  70 NW18G32   29.67R
6HR MIN TEMP:  43; 6HR MAX TEMP:  53;

HULETT         DRIZZLE   45  41  87 W13G20    29.65
NEWCASTLE      FAIR      59  30  33 W25G39    29.59

$$
WYZ014>020-022>026-101>103-231900-
CENTRAL WYOMING

CITY           SKY/WX    TMP DP  RH WIND       PRES   REMARKS
BIG PINEY      MOSUNNY   40   9  28 NW22G35   29.89R WCI  30
6HR MIN TEMP:  24; 6HR MAX TEMP:  40;

PINEDALE       PTCLDY    34  14  44 W16G29    29.88R WCI  23
DUBOIS         MOCLDY    36  10  35 NW22G36   29.77R WCI  24
LANDER         SUNNY     50   5  16 W20G28    29.75R
6HR MIN TEMP:  38; 6HR MAX TEMP:  51;

RIVERTON       PTSUNNY   51   7  16 NW20G26   29.75R
6HR MIN TEMP:  37; 6HR MAX TEMP:  53;

CASPER         SUNNY     53  10  18 W29G40    29.70R
6HR MIN TEMP:  43; 6HR MAX TEMP:  57;

DOUGLAS        SUNNY     57  22  25 W31G46    29.67F
6HR MIN TEMP:  48; 6HR MAX TEMP:  58;


$$
WYZ021-027>030-104>119-231900-
SOUTHERN WYOMING

CITY           SKY/WX    TMP DP  RH WIND       PRES   REMARKS
EVANSTON       PTSUNNY   35  17  47 W20G29    29.99R WCI  24
6HR MIN TEMP:  26; 6HR MAX TEMP:  36; 6HR PCP: TRACE;

KEMMERER       MOCLDY    34  18  51 W22       29.95S WCI  22
FORT BRIDGER   FAIR      37  21  53 W17G32    30.00R WCI  27
ROCK SPRINGS   MOSUNNY   40  12  32 SW33G41   29.91S WCI  28
6HR MIN TEMP:  31; 6HR MAX TEMP:  40;

DIXON          CLOUDY    42  25  50 W14G20    29.93S
RAWLINS        MOSUNNY   45  17  32 W26G35    29.84R
6HR MIN TEMP:  34; 6HR MAX TEMP:  45;

SARATOGA       CLOUDY    39  23  52 W23G29    29.88S WCI  29
LARAMIE        MOSUNNY   50  22  33 W29G40    29.75S
6HR MIN TEMP:  37; 6HR MAX TEMP:  51;

CHEYENNE       SUNNY     58  27  30 W23G31    29.71R
6HR MIN TEMP:  45; 6HR MAX TEMP:  58;

TORRINGTON     SUNNY     61  22  22 W32G55    29.64R
6HR MIN TEMP:  47; 6HR MAX TEMP:  61;

PINE BLUFFS    FAIR      64  28  25 W31G39    29.63R

$$



USA.gov is the U.S. government's official web portal to all federal, state and local government web resources and services.